Weather Roundup
Issued by NWS Chicago, IL

Home | Current Version | Previous Version | Graphics & Text | Print | Product List | Glossary On
Versions: 1 2 3 4 5 6 7 8 9 10 11 12 13 14 15 16 17 18 19 20 21 22 23 24 25 26 27 28 29 30 31 32 33 34 35 36 37 38 39 40 41 42 43 44 45 46 47 48 49 50
000
NZUS59 KLOT 290612
HRRLOT

CHICAGO AREA WEATHER ROUNDUP
NATIONAL WEATHER SERVICE CHICAGO/ROMEOVILLE IL
100 AM CDT SUN MAR 29 2015

NOTE: "FAIR" INDICATES FEW OR NO CLOUDS BELOW 12,000 FEET WITH NO
SIGNIFICANT WEATHER AND/OR OBSTRUCTIONS TO VISIBILITY.

* THESE STATIONS ARE NOT UNDER NWS QUALITY CONTROL. THEY ALSO MAY NOT
  REPORT WEATHER SUCH AS PRECIPITATION OR FOG.

ILZ005-006-012>014-019>023-290700-
NORTHEAST ILLINOIS

CITY           SKY/WX    TMP DP  RH WIND       PRES   REMARKS
OHARE          PTCLDY    23  14  68 S7        30.25F WCI  15
6HR MIN TEMP:  22; 6HR MAX TEMP:  32;

MIDWAY         CLEAR     28  12  51 S8        30.28S WCI  20
6HR MIN TEMP:  28; 6HR MAX TEMP:  33;

AURORA         CLEAR     24  14  65 S6        30.26S WCI  17
6HR MIN TEMP:  24; 6HR MAX TEMP:  37;

LANSING*       CLEAR     23  12  63 S5        30.29S WCI  17
JOLIET*        CLEAR     26  16  65 SE3       30.28S
WAUKEGAN       CLEAR     25  13  60 S8        30.24F WCI  16
6HR MIN TEMP:  22; 6HR MAX TEMP:  28;

DUPAGE AIRPORT CLEAR     25  13  60 S8        30.24F WCI  16
6HR MIN TEMP:  24; 6HR MAX TEMP:  35;

WHEELING       CLEAR     24  13  62 S7        30.27F WCI  16
6HR MIN TEMP:  23; 6HR MAX TEMP:  31;

KANKAKEE*      CLEAR     28  15  58 SE6       30.29S WCI  21
MORRIS*        CLEAR     26  16  66 S8        30.26S WCI  17
LEWIS AIRPORT* CLEAR     24  15  69 S8        30.27S WCI  15
NORTHERLY IS     N/A     29  12  49 S5          N/A  WCI  24
$$

WIZ051-052-058>065-066-070>072-290700-
SOUTHEAST WISCONSIN

CITY           SKY/WX    TMP DP  RH WIND       PRES   REMARKS
MILWAUKEE      PTCLDY    25  12  58 S8        30.22F WCI  16
6HR MIN TEMP:  25; 6HR MAX TEMP:  30;

KENOSHA*       CLEAR     25  12  58 S8        30.23F WCI  16
RACINE*        CLEAR     27  12  53 S7        30.24F WCI  19
BURLINGTON     CLEAR     24  12  61 S6        30.21F WCI  17
WAUKESHA       CLEAR     25  12  58 S6        30.20F WCI  18
WEST BEND      PTCLDY    27  12  54 S6        30.18F WCI  20
$$

INZ001>003-010>013-019-020-290700-
NORTHWEST INDIANA

CITY           SKY/WX    TMP DP  RH WIND       PRES   REMARKS
GARY*          CLEAR     26  11  53 SE5       30.29F WCI  21
6HR MIN TEMP:  26; 6HR MAX TEMP:  30;

MICHIGAN CITY* NOT AVBL
RENSSELAER*    NOT AVBL
VALPARAISO     CLEAR     23  14  68 SE5       30.29F WCI  17
$$

LMZ740>746-290700-
SOUTHERN LAKE MICHIGAN

STATION/POSITION TIME  SKY/WX   TEMP WIND        PRES    VSBY
                                AIR  DIR/SP/G
                 (UTC)          (F)  (DEG/KT/KT) (MB)    (MI)
HARRISON CRIB    0500            30  180/ 16/ 17   N/A
BURNHAM HARBOR   0600            29  190/  4/ 11   N/A
CALUMET HARBOR   0500            27  160/  6/  7 1024.1F
BURNS HARBOR     0500            26  140/  8/ 11 1026.1F
MICHIGAN CITY    0515            24  120/ 10/ 12   N/A
$$

ABBREVIATIONS USED IN REMARKS
   TC - TEMPERATURE IN CELSIUS
  WCI - WIND CHILL INDEX
   HX - HEAT INDEX
  VSB - VISIBILITY
$$


USA.gov is the U.S. government's official web portal to all federal, state and local government web resources and services.